Regional Weather Roundup
Issued by NWS

Home | Current Version | Previous Version | Text Only | Print | Product List | Glossary Off
Versions: 1 2 3 4 5 6 7 8 9 10 11 12 13 14 15 16 17 18 19 20 21 22 23 24 25 26 27 28 29 30 31 32 33 34 35 36 37 38 39 40 41 42 43 44 45 46 47 48 49 50

000
ASUS45 KTFX 011919
RWRMT
MONTANA HOURLY WEATHER ROUNDUP
NATIONAL WEATHER SERVICE GREAT FALLS MT
119 PM MDT WED APR 1 2015

NOTE: "FAIR" INDICATES FEW OR NO CLOUDS BELOW 12000 FEET WITH NO
SIGNIFICANT WEATHER AND/OR OBSTRUCTIONS TO VISIBILITY.

* THESE STATIONS ARE NOT UNDER NWS QUALITY CONTROL. THEY DO NOT
   REPORT WEATHER SUCH AS PRECIPITATION OR FOG.

MTZ001>007-043-012000-
WEST OF THE DIVIDE
CITY           SKY/WX    TMP DP  RH WIND       PRES   REMARKS
KALISPELL      CLOUDY    48  18  30 W13G23    29.94F
MISSOULA       LGT SNOW  37  25  62 NW13      30.05F WCI  29
BUTTE          PTSUNNY   36  16  44 W15G24    29.96S WCI  27
MULLAN PASS    CLOUDY    27  19  72 CALM      29.99F
* ESSEX        N/A       39  18  43 SE6G14     N/A   WCI  35
* EUREKA APT   PTSUNNY   45  19  35 W9        29.97F
* HAMILTON APT PTCLDY    41  28  60 S15       30.05F
* LIBBY APT    PTCLDY    46  16  30 S6        30.02R
* LINCOLN      N/A       39  16  39 SW8G28     N/A   WCI  33
* LOOKOUT PASS N/A       33  21  61 E6G13      N/A   WCI  27
* POLSON       N/A       44  21  40 S4G10      N/A
* RONAN APT    PTCLDY    43  21  42 S13        N/A
* SEELEY LAKE  N/A       40  19  43 W10G21     N/A   WCI  34
* THOMP F APT  PTCLDY    35   9  34 E2G13      N/A
* YAAK HILL    N/A       49  18  29 S2G7       N/A
$$

MTZ008-052>055-012000-
SOUTHWEST MONTANA
CITY           SKY/WX    TMP DP  RH WIND       PRES   REMARKS
BOZEMAN        CLOUDY    43  18  37 W23G33    29.93F
DILLON         PTSUNNY   41  10  28 SW17G35   29.96F
* W YELLOWSTON PTSUNNY   37  20  50 SW5G14     N/A   WCI  33
* THREE FORKS  PTSUNNY   43  16  34 SW25G32    N/A
* TWIN BRIDGES PTSUNNY   43   7  22 SW15       N/A
* BOULDER HILL N/A       36  12  37 S37G52     N/A   WCI  22
* HOMESTAKE PS N/A       30  12  47 NW8G15     N/A   WCI  22
* MONIDA PASS  N/A       33   6  32 NW16G22    N/A   WCI  23
* RAYNOLDS PAS N/A       34  19  54 S6G11      N/A   WCI  29
* WHITEHALL    N/A       41  15  35 W9G18      N/A
* WISE RIVER   N/A       36  13  39 W17G27     N/A   WCI  26
$$

MTZ009>010-012-014-046-048-049-054-012000-
EAST SLOPES AND CENTRAL MONTANA
CITY           SKY/WX    TMP DP  RH WIND       PRES   REMARKS
CUT BANK       PTCLDY    46  12  25 W36G52    29.77F
GREAT FALLS    PTSUNNY   48   9  20 W24G38    29.82F
HELENA         PTSUNNY   46  12  25 W22G38    29.92F
MALMSTROM AFB  PTSUNNY   46   7  20 W17G31    29.84F
* CONRAD       PTCLDY    45  16  31 SW37G44    N/A
* DEARBORN     N/A       45  13  27 SE17G31    N/A
* EAST GLACIER N/A       34  18  52 W14G22     N/A   WCI  24
* MONARCH      N/A       39  13  34 W19G30     N/A   WCI  29
* PENDROY      N/A       43  16  34 NW24G34    N/A
* ROGERS PASS  N/A       35  12  38 SE11G22    N/A   WCI  27
* SAINT MARY   N/A       36  20  52 SW10G23    N/A   WCI  29
* SWEET GRASS  N/A       47   7  19 W28G41     N/A
* WHITE SULPH  N/A       43  10  26 W8G26      N/A
$$

MTZ011-013-016-021-035-040-045-047-050-051-012000-
NORTH CENTRAL MONTANA
CITY           SKY/WX    TMP DP  RH WIND       PRES   REMARKS
HAVRE          LGT RAIN  39  32  76 W9        29.77F WCI  33
LEWISTOWN      PTCLDY    46  16  30 W18G40    29.81F
* N BAR RANCH  PTSUNNY   46  12  25 NW16G30   29.81F
* CHINOOK      PTCLDY    39  30  70 W7G23     29.77F WCI  34
* FORT BENTON  PTSUNNY   50  10  20 SW24G36   29.82S
* MALTA APT    PTSUNNY   43  32  65 W21        N/A
* CHESTER      N/A       45   9  23 NW27G42    N/A
* DENTON       N/A       47  20  34 W33G44     N/A
* GEYSER       N/A       45  17  32 W26G37     N/A
* JUDITH GAP   N/A       46  15  29 W17G33     N/A
* LOMA         N/A       50  13  23 SW20G35    N/A
$$

MTZ017>020-022>027-061-062-012000-
NORTHEAST MONTANA
CITY           SKY/WX    TMP DP  RH WIND       PRES   REMARKS
GLASGOW        PTSUNNY   54  25  33 W28G37    29.71S
GLENDIVE       PTCLDY    54  25  33 W29G36    29.72R
JORDAN         SUNNY     54  18  24 W28G36    29.76S
SIDNEY         SUNNY     54  27  35 W28G36    29.67R
WOLF POINT     PTCLDY    55  27  34 W26G35    29.70R
* BEAVER HILL  N/A       50  24  36 W34G44     N/A
* CIRCLE       N/A       51  29  43 SW15G32    N/A
* LINDSAY DVD  N/A       47  27  46 W25G37     N/A
* NAVAJO       N/A       49  25  39 NW30G38    N/A
* PLENTYWOOD A PTCLDY    50  27  41 W31G41    29.60F
* POPLAR APT   PTCLDY    52  28  40 W25G35    29.69R
* SACO         N/A       49  22  35 W24G31     N/A
$$

MTZ028>042-056>058-012000-
SOUTHCENTRAL AND SOUTHEAST MONTANA
CITY           SKY/WX    TMP DP  RH WIND       PRES   REMARKS
BAKER          PTSUNNY   52  21  30 W29G44    29.73R
BILLINGS       PTCLDY    54   9  16 W29G37    29.85F
LIVINGSTON     PTSUNNY   45  16  31 W32G39    29.89F
MILES CITY     PTCLDY    63  16  16 W25G32    29.77F
* BIG TIMBER A PTCLDY    45  10  24 W30G37    29.89F
* FORSYTH APT  PTCLDY    52  10  18 W26G35    29.80S VSB 1/2
* LAUREL APT   PTCLDY    52   9  17 W23G36     N/A
* ROUNDUP APT  PTCLDY    50   9  19 SW21G31    N/A
* ALZADA       N/A       46  27  48 W17G22     N/A
* HYSHAM       N/A       48  17  29 NW14G24    N/A
* LAME DEER    N/A       44  22  42 W17G24     N/A
* REED POINT   N/A       47  19  33 W27G44     N/A
* ROSCOE HILL  N/A       45  -1  14 W9G28      N/A
$$

REGIONAL REPORTS...DAKOTAS
CITY           SKY/WX    TMP DP  RH WIND       PRES   REMARKS
WILLISTON      SUNNY     54  28  37 W29G36    29.63S
DICKINSON      PTCLDY    54  27  35 W32G45    29.62R
BEACH          PTCLDY    52  27  38 NW32G40   29.71R
CROSBY         SUNNY     48  32  54 NW22G35   29.59S
TIOGA          PTSUNNY   50  32  50 W29G39    29.61R
WATFORD CITY   PTCLDY    54  32  43 NW24G33   29.61R
BISMARCK       CLOUDY    59  30  33 NW23G35   29.57R
GRAND FORKS    PTSUNNY   64  37  37 W13       29.32F
FARGO          CLOUDY    72  36  27 SW20G30   29.35R
BUFFALO SD     PTCLDY    55  18  23 W39G48    29.66R
RAPID CITY     PTCLDY    57  30  36 N33G45    29.71R
$$

REGIONAL REPORTS...WYOMING/IDAHO/WASHINGTON
CITY           SKY/WX    TMP DP  RH WIND       PRES   REMARKS
GILLETTE       CLOUDY    39  27  62 N16       29.85F WCI  30
SHERIDAN       PTCLDY    48  12  23 NW18G32   29.86F
CODY           PTSUNNY   46  10  23 W23G29    29.89R
YELLOWSTONE LA PTSUNNY   27  16  63 W10G23    29.96S WCI  18
SALMON         PTSUNNY   39  21  48 N3        30.02F
MULLAN PASS    CLOUDY    27  19  72 CALM      29.99S
SAND POINT     PTSUNNY   46  27  48 W10G21    30.06F
SPOKANE        PTSUNNY   46  30  54 SW14      30.10F
$$

REGIONAL REPORTS...ALBERTA
CITY           SKY/WX    TMP DP  RH WIND       PRES   REMARKS
CALGARY        PTSUNNY   46   1  15 NW26G41   29.66F
LETHBRIDGE     PTSUNNY   46  14  27 W39G45    29.72F
MEDICINE HAT   PTSUNNY   52  12  20 W26G35    29.67F
EDMONTON       LGT SNOW  32  30  92 NW23G36   29.62R VSB 3/4  WCI  19
WATERTON GATE  N/A       43  12  28 W22G36     N/A
CARDSTON       N/A       43  16  34 W23G36     N/A
MILK RIVER     N/A       48  12  23 NW29G37    N/A
$$

REGIONAL REPORTS...SASKATCHEWAN
CITY           SKY/WX    TMP DP  RH WIND       PRES   REMARKS
SWIFT CURRENT  PTSUNNY   39  30  70 W15G31    29.60R WCI  31
MOOSE JAW      PTSUNNY   50  28  43 NW31G38   29.57R
REGINA         PTSUNNY   48  32  54 W32G40    29.54S
VAL MARIE      N/A       46  25  44 W28G33     N/A
ASSINIBOIA     N/A       48  21  34 NW29G39    N/A
CORONACH       N/A       52  23  32 NW29G36    N/A

$$



USA.gov is the U.S. government's official web portal to all federal, state and local government web resources and services.